Theta_e
326 328 330 336 337 327 331 329 321 322 322 319 317 318 320 319 324 319 319 320 321 320 320 321 322 321 320 319 317 317 317 318 318 320 318 314 313 312 307 310 314 324 326 327 330 327 328 321 326
325 327 333 333 335 332 331 322 324 323 320 318 317 318 318 319 318 319 320 320 320 320 318 316 318 316 317 317 318 319 320 320 320 316 315 317 317 314 311 309 314 322 325 325 326 328 328 327 321
327 331 335 335 333 331 331 323 322 321 318 319 319 318 319 320 319 319 319 320 320 317 315 315 315 315 316 317 318 320 320 321 320 319 319 323 325 323 314 309 314 320 328 325 328 328 328 328 319
328 332 329 334 334 332 329 329 319 320 317 317 317 320 319 319 320 320 320 318 317 316 315 315 315 316 317 319 319 318 318 319 319 323 323 324 325 324 321 313 314 315 322 328 328 330 327 328 322
330 330 333 333 333 328 321 319 318 321 319 317 318 321 321 320 320 319 317 317 316 316 315 315 315 316 318 316 316 317 319 320 322 322 323 323 325 325 324 320 317 315 317 322 325 329 330 325 327
330 329 334 334 333 329 322 318 318 319 319 318 319 320 321 320 318 317 317 316 316 316 315 315 315 315 316 317 316 317 319 320 319 319 320 322 323 324 324 321 319 315 313 315 324 327 330 327 325
330 331 330 331 332 328 324 317 318 320 318 318 319 321 319 319 318 317 316 316 315 315 315 315 316 314 313 317 319 320 319 319 320 321 321 320 321 322 323 319 321 322 323 314 314 327 329 329 325
328 329 332 329 329 330 321 317 317 318 320 317 319 321 321 318 318 317 316 315 315 314 313 313 313 313 319 320 320 320 320 320 321 320 320 321 322 324 323 320 321 321 321 316 311 324 327 329 326
328 329 328 328 328 328 318 319 317 317 318 318 319 318 318 318 318 316 315 315 314 312 313 314 313 317 319 320 320 319 318 319 320 320 321 321 320 321 321 323 323 320 320 320 315 323 325 328 326
326 328 328 328 326 325 320 319 319 319 319 318 318 318 317 317 316 316 315 314 312 313 312 313 318 319 320 321 320 319 318 319 319 319 319 319 319 319 319 320 320 322 321 322 318 322 324 327 325
325 325 324 324 324 322 321 317 318 320 320 320 319 317 317 317 316 315 315 313 313 313 309 318 320 320 320 321 321 320 319 319 319 320 319 319 317 318 317 318 319 319 320 322 321 322 322 326 324
324 324 324 324 321 318 318 317 318 319 321 319 319 318 317 317 316 315 314 314 314 311 310 319 321 321 320 320 320 321 320 319 319 319 318 319 319 319 319 318 318 318 321 320 321 320 322 325 322
324 324 321 320 318 317 317 318 319 319 318 319 319 317 317 316 316 315 315 314 315 310 319 321 322 321 321 320 321 321 320 319 319 319 319 321 320 318 318 318 319 319 318 319 320 321 323 324 321
323 322 320 317 317 316 318 318 318 319 318 318 319 318 317 316 315 315 314 316 314 315 323 322 323 321 320 320 320 320 319 319 318 318 319 320 320 318 317 317 316 316 318 319 321 322 322 322 322
321 322 320 318 318 319 318 319 320 319 318 319 318 317 316 315 315 315 317 317 311 318 322 322 323 322 321 321 321 321 322 320 318 317 318 320 321 321 321 319 319 320 321 321 321 322 322 321 322
321 321 323 320 317 317 318 322 323 318 318 319 317 316 315 315 315 315 317 316 310 319 320 321 322 321 322 323 322 321 322 322 321 319 317 319 320 321 321 321 320 320 320 321 321 320 323 324 322
321 325 324 323 318 318 319 321 321 317 318 319 317 315 315 315 315 316 317 316 309 316 318 322 322 322 322 322 323 323 324 323 322 321 321 321 321 321 321 321 320 320 319 320 320 321 321 320 321
324 323 322 323 321 318 319 319 321 319 318 319 317 316 316 315 315 316 317 315 311 314 318 319 322 323 323 320 322 323 323 322 321 320 321 321 321 321 322 322 320 319 320 320 320 321 322 321 321
323 323 324 322 322 321 322 322 322 321 318 318 317 316 317 316 315 317 317 315 312 312 319 318 321 323 323 318 322 324 324 324 322 320 320 321 322 323 323 323 321 320 320 321 321 322 322 324 324
322 323 323 322 321 321 323 322 322 321 320 319 319 317 317 317 316 316 318 316 313 311 319 320 319 321 323 321 324 325 325 324 321 322 323 323 323 322 323 323 322 321 320 323 323 323 325 326 326
322 323 323 324 321 320 320 322 322 322 318 318 318 318 317 317 318 316 318 316 313 312 317 319 318 319 324 324 324 325 324 323 322 326 326 326 324 325 324 323 323 321 323 325 324 325 325 325 330
325 322 323 323 322 324 321 324 323 323 323 321 319 317 317 317 317 316 318 316 312 315 315 319 317 321 324 325 325 326 326 324 325 326 326 326 326 325 325 324 325 326 325 325 325 324 325 329 330
324 322 322 322 324 321 322 322 322 321 323 324 324 319 317 317 316 316 317 316 312 316 316 320 318 319 322 324 322 322 326 327 325 323 325 325 325 326 326 326 326 326 325 326 325 326 327 331 329
323 321 320 320 321 323 323 322 321 323 324 324 324 321 318 317 317 317 317 317 315 317 317 319 317 317 318 323 322 321 323 326 327 325 324 323 323 325 326 326 326 326 324 326 326 327 328 328 327
322 324 325 326 326 324 320 321 323 324 324 323 323 322 318 317 317 318 317 317 317 317 319 321 318 317 315 317 320 321 324 325 327 326 326 325 323 322 324 326 327 327 324 325 324 325 327 329 329
323 325 324 326 323 324 320 323 322 325 323 324 323 323 318 317 318 319 317 317 315 318 319 321 322 316 317 316 315 320 322 322 325 327 327 326 324 324 324 327 327 327 327 326 327 327 329 330 329
321 322 323 324 321 322 322 323 324 326 327 326 323 319 318 317 318 318 317 317 315 318 318 321 322 319 318 317 316 317 320 321 320 325 327 326 325 326 326 327 327 327 325 326 327 328 329 329 329
323 321 323 321 324 325 323 324 325 325 325 328 325 321 318 318 318 319 317 316 315 318 319 321 322 321 316 316 316 315 317 318 319 323 323 321 322 326 327 326 326 327 325 327 327 327 328 328 329
321 322 322 322 322 325 326 325 326 328 330 332 328 322 319 318 318 319 318 316 316 319 320 321 322 321 311 314 314 315 315 317 318 319 320 320 319 322 326 327 327 327 327 328 328 328 328 328 329
323 323 324 324 325 323 324 325 325 328 331 331 329 322 320 319 319 319 318 316 317 319 320 320 321 320 310 309 311 313 315 314 317 317 317 317 321 322 325 326 326 327 327 326 327 329 329 328 328
Wind_Speed
10 10 5 2 4 2 2 1 2 3 2 2 8 4 6 3 5 2 2 5 6 6 7 9 14 15 17 16 14 15 17 19 21 21 21 19 18 15 15 16 17 13 15 12 11 12 12 12 11
8 6 2 1 2 2 3 1 7 6 2 4 4 3 2 3 5 5 4 5 5 7 8 9 12 13 14 15 17 18 19 22 23 23 23 21 19 17 16 17 18 15 14 14 13 13 13 13 12
5 3 2 1 1 2 5 2 8 3 5 4 3 3 2 2 4 3 3 3 7 7 8 9 9 11 14 16 18 20 20 23 24 23 23 23 20 20 18 18 19 17 13 15 12 13 14 13 14
4 2 4 2 2 2 5 10 4 3 3 7 3 3 3 5 2 4 5 6 8 9 11 11 13 14 16 17 18 20 22 24 25 24 25 24 24 22 19 19 20 19 17 13 16 15 16 15 14
4 1 2 1 3 3 7 7 8 9 5 6 7 5 3 5 7 6 6 8 9 11 14 15 16 16 16 18 20 21 23 25 27 28 28 27 25 24 21 19 20 20 19 15 14 16 16 16 15
2 1 3 3 5 4 7 8 9 12 12 4 5 5 4 7 9 9 9 9 10 13 13 13 13 14 16 21 20 22 25 28 30 31 30 29 26 26 23 21 19 18 20 18 13 19 17 16 16
3 2 4 5 7 6 4 5 7 11 10 9 3 3 3 10 11 10 9 11 12 14 15 13 15 19 19 18 19 22 27 31 31 27 26 24 25 26 23 22 19 17 16 18 16 17 21 19 18
4 3 4 3 5 11 3 6 3 12 13 5 6 4 3 11 12 10 10 12 14 17 16 17 16 17 17 18 22 25 25 25 25 23 22 21 20 23 22 24 22 19 16 16 18 17 22 20 19
5 4 5 5 3 4 4 6 6 5 5 5 7 8 8 6 10 10 11 13 16 14 14 14 16 17 18 20 21 20 21 21 20 20 19 19 21 20 19 21 24 20 19 16 19 17 22 20 20
7 4 5 5 6 8 6 12 8 7 4 6 9 14 9 8 10 10 12 13 12 12 13 15 16 18 17 18 18 19 20 15 12 13 15 17 20 22 25 27 24 21 19 16 17 17 20 19 20
6 10 11 14 21 15 8 8 9 9 6 13 16 15 12 11 12 12 12 11 12 13 15 14 16 16 16 18 17 19 18 13 10 11 11 12 16 19 22 24 27 27 24 18 18 18 19 21 20
8 12 13 11 7 7 5 6 8 14 14 5 10 13 14 14 12 11 9 10 12 14 14 13 14 14 15 17 15 17 14 11 10 8 5 4 9 12 14 18 22 24 22 20 18 17 18 21 20
8 14 6 7 6 7 6 6 7 16 17 15 10 13 15 14 12 10 8 9 11 14 13 14 14 14 16 13 15 13 11 10 8 6 4 4 5 5 4 8 15 18 20 17 15 16 20 21 20
8 11 2 1 2 2 4 2 3 7 14 16 13 17 16 14 11 9 7 7 10 12 13 13 13 14 15 12 13 12 10 10 9 5 4 2 2 4 4 7 12 14 15 14 15 17 21 21 21
5 5 2 2 3 0 4 5 9 13 11 15 17 18 18 15 13 9 4 6 9 10 13 13 12 14 14 13 13 12 10 9 9 5 3 2 2 2 3 7 11 13 13 14 15 17 18 20 20
3 1 2 1 4 0 7 10 12 13 17 18 18 20 19 18 14 8 4 4 8 9 12 13 13 13 13 14 13 11 10 8 7 6 4 4 4 4 4 7 10 13 14 16 16 17 18 17 20
2 6 6 5 5 3 9 9 11 6 17 18 19 21 21 19 15 9 5 2 7 7 10 13 14 14 13 12 12 10 9 7 6 5 5 6 7 8 8 9 12 15 16 16 17 17 17 20 21
9 5 3 4 2 5 7 14 18 12 14 20 20 19 20 20 16 9 6 0 5 6 8 11 13 15 15 12 11 10 8 9 8 5 5 4 6 8 10 14 15 17 17 17 18 17 15 19 19
9 5 5 5 5 4 10 12 16 16 15 17 19 21 21 22 16 11 8 3 2 5 5 9 11 14 15 10 9 10 10 9 6 3 4 8 7 6 11 14 17 18 18 18 18 17 16 19 21
6 5 6 6 5 4 10 14 16 12 10 18 22 23 24 20 20 15 11 5 1 4 3 7 10 12 13 9 10 14 13 10 7 6 7 13 6 8 10 12 16 17 14 15 18 19 22 21 26
6 7 4 9 3 5 7 11 8 8 6 8 15 21 24 26 23 19 15 8 4 2 2 7 10 11 12 9 6 12 14 11 13 17 18 25 16 10 8 10 12 12 14 18 21 21 24 26 28
11 11 7 5 4 9 1 7 7 9 11 9 14 20 24 26 23 19 16 10 7 3 4 6 9 10 11 14 10 11 14 15 12 16 19 21 23 23 9 8 13 15 15 18 22 23 25 28 30
9 6 5 4 7 3 4 4 5 4 9 13 15 20 24 28 29 24 18 12 9 6 5 5 8 9 10 12 13 14 15 13 10 11 15 18 19 18 19 18 15 18 14 17 23 26 29 29 30
4 4 3 2 2 4 7 6 4 5 8 6 7 12 22 27 28 24 17 14 11 8 5 4 6 6 8 9 12 13 14 14 13 10 9 10 15 18 15 17 16 14 18 20 22 24 28 29 28
8 7 5 4 4 6 2 4 8 11 14 13 13 7 17 26 28 26 23 19 14 11 7 3 5 4 6 8 9 12 15 17 14 16 8 7 7 18 14 15 16 17 22 20 20 22 24 28 30
13 12 7 4 4 8 3 5 6 8 6 6 9 6 15 25 28 26 23 19 16 12 9 5 2 4 5 7 10 10 11 14 16 17 15 17 18 11 14 14 19 27 24 24 20 23 26 23 19
7 7 6 8 1 4 3 5 11 6 9 5 3 9 17 25 30 28 23 19 17 14 11 7 2 4 3 6 8 9 8 10 12 19 19 19 16 13 14 12 12 22 24 21 22 24 23 20 15
13 12 5 3 5 7 4 3 7 13 10 1 5 10 17 23 26 26 23 20 19 16 12 7 4 1 2 3 7 7 6 7 9 11 12 12 14 14 12 15 15 20 19 18 25 22 21 18 20
7 9 3 3 4 7 8 5 5 8 4 5 7 13 20 26 28 26 23 21 19 17 14 9 5 2 1 2 4 6 6 5 7 9 9 9 12 14 14 17 17 15 10 10 15 16 15 16 20
22 18 15 10 9 4 5 10 5 7 3 5 4 9 15 25 27 24 23 23 22 19 16 11 7 5 3 3 3 4 5 5 6 8 11 11 11 13 15 14 14 17 20 20 17 18 19 21 20
Wind_Direction
129 128 113 150 226 250 242 188 306 240 215 163 133 166 200 162 183 280 211 204 214 255 283 266 261 272 277 275 288 291 294 293 296 296 299 301 302 299 287 265 257 245 241 247 246 233 235 228 211
132 124 102 172 259 300 326 268 241 235 143 142 154 137 174 243 222 274 231 219 248 280 286 275 259 266 269 276 280 278 275 279 283 293 296 295 291 287 282 263 252 249 240 237 243 243 224 231 208
144 128 196 106 159 318 315 244 289 284 209 184 167 199 213 218 219 241 252 274 285 286 299 307 288 272 271 272 276 274 275 276 281 285 291 292 285 278 274 256 247 246 245 232 235 241 233 228 215
156 142 69 246 285 267 261 302 271 233 174 209 202 226 231 222 231 234 246 269 276 288 295 289 285 277 276 270 273 276 279 278 281 280 281 282 275 270 270 251 243 241 236 235 223 231 245 224 223
190 124 167 175 273 257 244 259 211 209 202 198 184 231 230 208 227 238 255 273 287 280 272 276 282 272 275 276 279 281 281 282 281 280 277 273 268 262 257 248 242 241 240 231 230 223 223 236 223
162 193 235 268 274 256 274 245 196 214 215 161 196 190 226 222 227 241 259 280 287 281 277 275 270 273 278 284 282 281 281 283 283 281 277 270 262 261 250 244 237 242 242 241 220 215 233 219 214
207 218 275 288 294 296 277 178 206 217 225 223 182 206 228 218 229 248 273 285 286 290 293 290 289 290 289 287 283 283 284 285 285 282 276 268 260 256 247 232 234 240 250 240 226 218 223 212 212
201 228 186 230 300 301 292 186 212 214 239 222 177 245 254 242 239 255 269 284 296 301 302 298 299 302 295 285 287 289 290 289 285 285 280 265 256 246 241 236 237 244 246 239 224 221 217 214 208
186 235 256 264 247 287 207 213 220 227 193 174 198 242 256 266 237 244 266 286 297 304 304 308 305 302 296 298 303 304 307 298 287 280 275 262 257 252 247 245 237 234 240 239 226 225 218 214 206
208 228 229 228 223 255 221 213 202 192 168 211 229 244 241 220 230 250 270 285 303 316 318 317 312 306 302 308 309 319 324 312 294 278 276 264 261 260 256 248 242 238 236 243 233 229 216 208 201
200 253 254 258 253 250 245 207 193 207 209 215 223 221 209 219 231 252 269 298 317 327 327 318 311 310 307 310 315 322 328 323 310 298 293 271 259 261 257 244 241 238 236 234 223 222 213 201 197
239 241 247 282 275 210 220 177 206 215 241 210 255 247 213 220 233 252 278 312 329 329 328 314 321 324 321 321 326 326 326 339 326 327 328 316 279 274 255 247 231 230 224 217 220 214 203 196 197
233 260 223 254 265 215 183 218 226 241 237 246 252 211 208 218 231 245 280 318 330 335 331 324 328 329 332 334 335 338 339 330 327 323 329 335 347 348 256 210 203 206 203 209 210 202 194 193 192
244 236 241 141 266 185 201 189 210 282 239 233 225 206 211 221 228 246 287 326 332 345 337 336 339 344 346 344 343 346 341 345 342 310 296 297 5 64 98 145 163 174 190 200 199 193 189 189 189
278 229 146 167 193 25 178 256 234 254 235 216 206 206 211 214 222 245 279 320 342 352 341 345 345 350 352 350 351 348 341 339 354 346 299 251 220 165 144 153 161 172 185 189 188 184 183 188 188
232 206 239 117 165 307 214 259 276 260 212 204 203 206 209 211 222 227 253 317 353 355 348 353 353 353 351 355 352 352 341 329 321 321 296 256 256 237 197 196 183 182 183 179 180 180 179 182 188
223 261 276 292 204 149 214 263 271 261 214 211 203 204 208 210 213 217 229 323 2 357 358 8 9 0 357 354 355 348 345 341 344 332 305 277 259 248 225 205 195 188 182 180 181 180 185 188 192
235 223 204 235 203 207 241 251 271 263 223 222 208 202 205 210 215 208 207 276 9 360 6 14 19 13 13 6 4 359 353 351 355 340 316 288 270 232 207 196 191 190 187 187 184 187 186 192 177
240 232 247 248 252 255 265 273 275 280 240 222 209 204 204 211 208 201 198 183 5 1 16 15 19 15 16 14 12 16 14 10 3 339 345 306 238 183 185 190 188 191 193 195 190 184 186 169 171
207 226 243 272 268 227 287 275 274 266 247 225 215 206 206 202 204 200 196 181 153 8 39 29 25 21 17 14 14 20 20 35 48 43 19 25 129 176 175 183 188 192 195 190 184 176 170 168 174
198 217 216 286 316 246 286 280 269 280 253 240 227 221 210 203 200 198 193 179 160 49 96 53 31 23 21 9 5 31 33 51 71 65 64 62 74 131 123 153 185 190 190 183 177 176 172 165 172
224 219 244 249 271 292 240 294 288 284 283 256 232 214 208 202 203 199 189 178 163 118 127 59 41 34 37 37 34 48 45 69 79 79 74 71 68 71 90 89 133 164 148 163 165 169 165 164 164
239 171 206 232 259 305 224 245 271 289 278 268 240 217 208 201 200 195 190 170 164 143 133 75 56 45 47 42 40 44 45 54 65 84 79 67 53 55 66 103 123 147 147 158 164 163 163 159 158
177 139 93 94 179 252 250 226 273 241 238 259 250 211 203 195 194 193 183 171 170 163 146 100 59 52 52 43 41 34 45 52 53 54 84 76 48 65 81 90 98 128 134 142 153 160 160 167 161
183 198 241 238 220 270 91 198 259 262 253 254 291 255 201 192 187 187 183 179 177 173 168 142 57 56 57 47 41 39 46 50 57 55 85 91 123 86 89 88 97 114 137 141 137 151 160 169 177
197 207 234 236 236 298 135 234 258 255 299 289 277 240 185 184 185 189 186 181 178 172 180 194 73 50 72 60 43 47 55 55 58 41 94 97 123 94 90 108 107 118 127 136 140 156 160 163 161
176 200 232 248 48 265 256 250 281 281 254 240 136 164 174 181 186 189 186 182 178 172 171 181 175 24 75 58 50 47 59 62 58 53 101 90 94 114 83 81 128 125 141 131 131 151 157 171 186
204 163 181 191 229 250 221 268 270 297 300 172 185 189 174 180 188 190 186 183 180 172 174 184 177 311 128 59 59 53 64 66 64 72 76 76 84 94 107 103 111 112 119 135 140 133 128 144 162
179 202 190 231 233 253 275 265 225 258 327 318 224 201 178 179 189 192 186 185 183 179 183 190 183 206 187 115 76 66 74 87 78 88 83 79 75 78 81 91 95 115 128 142 146 152 147 136 137
205 206 204 223 205 234 276 271 221 233 282 289 177 189 193 180 188 191 188 186 187 188 190 195 191 179 182 158 123 102 94 96 102 93 85 91 98 96 92 88 86 92 111 103 98 115 142 141 141